Weather History for Prince George, BC

Change the Weather History Date:

Friday, February 22, 2013

  Actual Average Record
Temperature  
Mean Temperature 34 °F -  
Max Temperature 38 °F 32 °F 44 °F (1998)
Min Temperature 30 °F 15 °F -9 °F (2003)
Degree Days  
Heating Degree Days 31    
Moisture  
Dew Point 29 °F    
Average Humidity 84    
Maximum Humidity 100    
Minimum Humidity 62    
Precipitation  
Precipitation 0.04 in - - ()
Sea Level Pressure  
Sea Level Pressure 29.39 in    
Wind  
Wind Speed 14 mph ()    
Max Wind Speed 24 mph    
Max Gust Speed 33 mph    
Visibility 5.9 miles    
Events Rain , Snow    
Averages and records for this station are not official NWS values.
T = Trace of Precipitation, MM = Missing Value Source: Averaged Metar Reports

Daily Weather History Graph

Daily Weather History Graph

Search for Another Location

Airport:

Trip Planner

Search our weather history database for the weather conditions in past years. The results will help you decide how hot, cold, wet, or windy it might be!

Date:

Astronomy

Feb. 22, 2013 Rise Set
Actual Time 7:14 AM PST 5:35 PM PST
Civil Twilight 6:38 AM PST 6:11 PM PST
Nautical Twilight 5:57 AM PST 6:51 PM PST
Astronomical Twilight 5:16 AM PST 7:32 PM PST
Moon 2:35 PM PST (2/22) 5:21 AM PST (2/22)
Length of Visible Light 11h 32m
Length of Day
10h 21m
Waxing Gibbous, 91% of the Moon is Illuminated
Feb 22
Waxing Gibbous
Feb 25
Full
Mar 4
Last Quarter
Mar 11
New
Mar 19
First Quarter

Hourly Weather History & Observations

Time (PST) Temp. Windchill Dew Point Humidity Pressure Visibility Wind Dir Wind Speed Gust Speed Precip Events Conditions
12:00 AM 32.0 °F 24.2 °F 26.6 °F 80% 29.65 in 9.0 mi South 9.2 mph - N/A   Overcast
1:00 AM 32 °F - 25 °F 65% 29.63 in 10 mi South 10.4 mph - -   Overcast
1:00 AM 32.0 °F 24.2 °F 24.8 °F 75% 29.63 in 9.0 mi South 9.2 mph - N/A   Overcast
1:05 AM 32.0 °F 23.6 °F 24.8 °F 75% 29.62 in 9.0 mi South 10.4 mph - N/A Rain Light Rain
1:11 AM 32.0 °F 23.0 °F 24.8 °F 75% 29.62 in 8.0 mi South 11.5 mph - N/A Rain , Snow Light Snow
1:16 AM 32.0 °F 22.5 °F 26.6 °F 80% 29.62 in 6.0 mi South 12.7 mph - N/A Snow Light Snow
1:18 AM 32.0 °F 22.5 °F 26.6 °F 80% 29.62 in 5.0 mi South 12.7 mph - N/A Snow Light Snow
1:24 AM 32.0 °F 22.1 °F 26.6 °F 80% 29.62 in 3.0 mi South 13.8 mph - N/A Snow Light Snow
1:25 AM 32.0 °F 22.1 °F 26.6 °F 80% 29.62 in 2.2 mi South 13.8 mph - N/A Snow Light Snow
1:28 AM 32.0 °F 22.1 °F 26.6 °F 80% 29.62 in 1.8 mi South 13.8 mph - N/A Snow Light Snow
3:00 AM 30.2 °F 19.8 °F 30.2 °F 100% 29.55 in 1.2 mi South 13.8 mph 19.6 mph N/A Snow Light Snow
3:06 AM 30.2 °F 19.8 °F 30.2 °F 100% 29.55 in 1.2 mi South 13.8 mph - N/A Snow Light Snow
3:27 AM 30.2 °F 18.9 °F 30.2 °F 100% 29.53 in 1.2 mi South 16.1 mph - N/A Snow Light Snow
3:49 AM 30.2 °F 18.9 °F 30.2 °F 100% 29.51 in 1.0 mi South 16.1 mph 24.2 mph N/A Snow Light Snow
3:51 AM 30.2 °F 18.5 °F 30.2 °F 100% 29.51 in 1.0 mi South 17.3 mph - N/A Snow Light Snow
4:00 AM 31 °F - 30 °F 93% 29.51 in 1 mi South 17.3 mph - - Snow Light Snow
4:12 AM 30.2 °F 18.9 °F 30.2 °F 100% 29.49 in 2.0 mi South 16.1 mph - N/A Snow Light Snow
4:40 AM 30.2 °F 18.9 °F 30.2 °F 100% 29.47 in 1.8 mi South 16.1 mph - N/A Snow Light Snow
5:00 AM 30.2 °F 18.9 °F 30.2 °F 100% 29.45 in 1.8 mi South 16.1 mph - N/A Snow Light Snow
5:02 AM 30.2 °F 18.5 °F 30.2 °F 100% 29.44 in 2.0 mi SSE 17.3 mph - N/A Snow Light Snow
5:10 AM 32.0 °F 21.2 °F 30.2 °F 93% 29.44 in 3.0 mi SSE 16.1 mph - N/A Snow Light Snow
5:23 AM 32.0 °F 21.2 °F 30.2 °F 93% 29.43 in 2.5 mi South 16.1 mph - N/A Snow Light Snow
5:39 AM 32.0 °F 22.5 °F 30.2 °F 93% 29.43 in 1.8 mi South 12.7 mph 19.6 mph N/A Snow Light Snow
5:52 AM 32.0 °F 21.2 °F 30.2 °F 93% 29.42 in 2.0 mi South 16.1 mph - N/A Snow Light Snow
5:57 AM 32.0 °F 21.6 °F 30.2 °F 93% 29.42 in 2.0 mi South 15.0 mph - N/A Snow Light Snow
6:06 AM 32.0 °F 19.5 °F 30.2 °F 93% 29.41 in 3.0 mi South 21.9 mph - N/A Snow Light Snow
6:19 AM 32.0 °F 19.8 °F 30.2 °F 93% 29.41 in 3.0 mi South 20.7 mph 28.8 mph N/A Snow Light Snow
6:20 AM 32.0 °F 19.8 °F 30.2 °F 93% 29.41 in 2.2 mi South 20.7 mph 28.8 mph N/A Snow Light Snow
6:29 AM 32.0 °F 20.1 °F 30.2 °F 93% 29.40 in 1.8 mi South 19.6 mph - N/A Snow Light Snow
6:46 AM 32.0 °F 19.5 °F 30.2 °F 93% 29.39 in 1.2 mi South 21.9 mph - N/A Snow Light Snow
7:00 AM 32 °F - 30 °F 88% 29.38 in 1 mi South 23.0 mph - - Snow Light Snow
7:00 AM 32.0 °F 19.2 °F 30.2 °F 93% 29.38 in 1.2 mi South 23.0 mph 33.4 mph N/A Snow Light Snow
7:45 AM 32.0 °F 18.9 °F 30.2 °F 93% 29.34 in 1.8 mi South 24.2 mph 31.1 mph N/A Snow Light Snow
7:47 AM 32.0 °F 18.9 °F 30.2 °F 93% 29.34 in 2.0 mi South 24.2 mph - N/A Snow Light Snow
8:00 AM 32.0 °F 19.8 °F 28.4 °F 87% 29.34 in 2.5 mi South 20.7 mph 31.1 mph N/A Snow Light Snow
8:03 AM 32.0 °F 19.5 °F 30.2 °F 93% 29.33 in 3.0 mi South 21.9 mph 29.9 mph N/A Snow Light Snow
8:18 AM 32.0 °F 19.8 °F 28.4 °F 87% 29.32 in 6.0 mi South 20.7 mph 32.2 mph N/A Snow Light Snow
8:53 AM 32.0 °F 20.1 °F 28.4 °F 87% 29.32 in 9.0 mi South 19.6 mph 27.6 mph N/A Snow Light Snow
9:00 AM 32.0 °F 19.2 °F 28.4 °F 87% 29.31 in 9.0 mi South 23.0 mph 31.1 mph N/A Snow Light Snow
9:04 AM 32.0 °F 19.2 °F 28.4 °F 87% 29.31 in 9.0 mi South 23.0 mph 31.1 mph N/A Snow Light Snow
9:23 AM 33.8 °F 23.5 °F 28.4 °F 81% 29.30 in 9.0 mi South 16.1 mph 26.5 mph N/A   Overcast
9:26 AM 33.8 °F 21.9 °F 28.4 °F 81% 29.30 in 9.0 mi South 21.9 mph 28.8 mph N/A Rain Light Rain
9:30 AM 33.8 °F 23.2 °F 28.4 °F 81% 29.30 in 9.0 mi South 17.3 mph 28.8 mph N/A Rain Light Rain
9:41 AM 33.8 °F 23.5 °F 28.4 °F 81% 29.30 in 9.0 mi South 16.1 mph 25.3 mph N/A Rain Light Rain
9:46 AM 33.8 °F 23.9 °F 28.4 °F 81% 29.29 in 9.0 mi South 15.0 mph 21.9 mph N/A   Overcast
10:00 AM 33 °F - 28 °F 74% 29.29 in 10 mi South 18.4 mph - -   Clear
10:00 AM 33.8 °F 22.5 °F 28.4 °F 81% 29.29 in 9.0 mi South 19.6 mph - N/A   Overcast
11:00 AM 33.8 °F 23.2 °F 28.4 °F 81% 29.27 in 9.0 mi South 17.3 mph 25.3 mph N/A   Mostly Cloudy
12:00 PM 35.6 °F 25.2 °F 28.4 °F 75% 29.24 in 9.0 mi South 18.4 mph 29.9 mph N/A   Mostly Cloudy
1:00 PM 37 °F - 29 °F 62% 29.22 in 10 mi South 21.9 mph - -  
1:00 PM 37.4 °F 26.1 °F 28.4 °F 70% 29.22 in 9.0 mi South 24.2 mph 32.2 mph N/A   Clear
2:00 PM 37.4 °F 27.5 °F 28.4 °F 70% 29.21 in 9.0 mi South 18.4 mph 29.9 mph N/A   Scattered Clouds
2:33 PM 37.4 °F 28.9 °F 28.4 °F 70% 29.25 in 9.0 mi WSW 13.8 mph 23.0 mph N/A   Overcast
2:41 PM 37.4 °F 28.2 °F 30.2 °F 75% 29.24 in 9.0 mi South 16.1 mph 23.0 mph N/A Rain Light Rain
3:00 PM 37.4 °F 28.9 °F 30.2 °F 75% 29.23 in 9.0 mi South 13.8 mph - N/A Rain Light Rain
3:01 PM 37.4 °F 28.5 °F 30.2 °F 75% 29.23 in 9.0 mi South 15.0 mph - N/A   Overcast
3:19 PM 37.4 °F 27.8 °F 30.2 °F 75% 29.25 in 9.0 mi South 17.3 mph 23.0 mph N/A Rain Light Rain
3:38 PM 35.6 °F 28.0 °F 30.2 °F 81% 29.25 in 9.0 mi South 10.4 mph 19.6 mph N/A   Mostly Cloudy
4:00 PM 37 °F - 30 °F 67% 29.25 in 10 mi South 11.5 mph - -  
4:00 PM 37.4 °F 29.3 °F 30.2 °F 75% 29.24 in 9.0 mi South 12.7 mph - N/A   Partly Cloudy
5:00 PM 37.4 °F 29.3 °F 30.2 °F 75% 29.26 in 9.0 mi South 12.7 mph - N/A   Mostly Cloudy
6:00 PM 33.8 °F 25.8 °F 28.4 °F 81% 29.28 in 9.0 mi South 10.4 mph - N/A   Mostly Cloudy
7:00 PM 34 °F - 29 °F 75% 29.31 in 10 mi South 8.1 mph - -   Overcast
7:00 PM 33.8 °F 27.7 °F 28.4 °F 81% 29.31 in 9.0 mi South 6.9 mph - N/A   Overcast
8:00 PM 33.8 °F 29.6 °F 26.6 °F 75% 29.35 in 9.0 mi SW 4.6 mph - N/A   Overcast
9:00 PM 30.2 °F 25.4 °F 24.8 °F 80% 29.38 in 9.0 mi South 4.6 mph - N/A   Mostly Cloudy
10:00 PM 31 °F - 25 °F 69% 29.42 in 10 mi South 9.2 mph - -   Overcast
10:00 PM 30.2 °F 21.9 °F 24.8 °F 80% 29.41 in 9.0 mi South 9.2 mph - N/A   Overcast
11:00 PM 32.0 °F 24.8 °F 23.0 °F 69% 29.45 in 9.0 mi South 8.1 mph - N/A   Overcast